[Iaude] MPEC S50: 2016 SF1

mpec at si.edu mpec at si.edu
Thu Sep 29 16:05:55 EDT 2016


M.P.E.C. 2016-S50                                Issued 2016 Sept. 26, 18:02 UT
 
     The Minor Planet Electronic Circulars contain information on unusual
         minor planets and routine data on comets.  They are published
    on behalf of Division F of the International Astronomical Union by the
          Minor Planet Center, Smithsonian Astrophysical Observatory,
                          Cambridge, MA 02138, U.S.A.

             Prepared using the Tamkin Foundation Computer Network

                              MPC at CFA.HARVARD.EDU
            URL http://www.minorplanetcenter.net/    ISSN 1523-6714


                                   2016 SF1
 
Observations:
     K16S01F* C2016 09 21.56404 03 54 08.097-26 46 13.65         20.3 rLES050F51
     K16S01F  C2016 09 21.57374 03 54 07.887-26 46 06.26         20.2 rLES050F51
     K16S01F  C2016 09 21.58343 03 54 07.688-26 45 58.48         20.3 rLES050F51
     K16S01F  C2016 09 22.58231 03 54 51.113-26 33 07.15         20.2 iLES050F51
     K16S01F  C2016 09 22.59267 03 54 50.819-26 33 00.08         20.2 iLES050F51
     K16S01F  C2016 09 22.60302 03 54 50.523-26 32 52.48         19.8 iLES050F51
     K16S01F  C2016 09 22.61341 03 54 50.236-26 32 44.73         20.2 iLES050F51
     K16S01F  C2016 09 25.44929 03 55 57.26 -26 04 41.6          21.4 RoES050926
     K16S01F  C2016 09 25.46691 03 55 56.57 -26 04 32.3          20.9 RoES050926
     K16S01F  C2016 09 25.48183 03 55 55.97 -26 04 23.9          21.4 RoES050926
 
Observer details:
926 Tenagra II Observatory.  Observers M. Schwartz, P. R. Holvorcem.  Measurer
    M. Schwartz.  0.81-m f/7 Ritchey-Chretien + CCD.
F51 Pan-STARRS 1, Haleakala.  Observers B. Gibson, T. Goggia, S. Kahale,
    A. Schultz, M. Willman.  Measurers K. Chambers, S. Chastel, L. Denneau,
    H. Flewelling, M. Huber, E. Lilly, E. Magnier, R. Wainscoat, C. Waters,
    R. Weryk.  1.8-m Ritchey-Chretien + CCD.
 
Orbital elements:
2016 SF1                                                 Earth MOID = 0.0014 AU
Epoch 2016 July 31.0 TT = JDT 2457600.5                 MPC
M 347.04516              (2000.0)            P               Q
n   0.40523891     Peri.  168.99635     +0.91851112     +0.39370818
a   1.8085421      Node   167.62663     -0.37446799     +0.89580777
e   0.4454059      Incl.    9.80345     -0.12692928     +0.20620937
P   2.43           H   24.5           G   0.15           U   5
Residuals in seconds of arc
160921 F51  0.2+  0.0     160922 F51  0.0   0.1-    160925 926  0.1+  0.0
160921 F51  0.1-  0.0     160922 F51  0.1-  0.0     160925 926  0.6-  0.4+
160921 F51  0.1-  0.1+    160922 F51  0.1-  0.0
160922 F51  0.1+  0.1+    160925 926  0.6+  0.4-

Ephemeris:
2016 SF1                 a,e,i = 1.81, 0.45, 10                  q = 1.0030
Date    TT    R. A. (2000) Decl.     Delta      r     Elong.  Phase     V
2016 08 27    16 11 46.3 +23 30 58   0.07176 1.0046    83.4    92.5    22.1
...
2016 09 11    23 14 21.2 -47 02 39   0.0039321.0096   137.5    42.3    14.1
...
2016 09 19    03 50 55.0 -27 29 16   0.04169 1.0235   116.1    61.8    19.9
...
2016 09 25    03 55 51.0 -26 06 52   0.07111 1.0390   118.8    57.7    20.9
2016 09 26    03 56 01.8 -25 58 30   0.07600 1.0420   119.4    56.9    21.1
2016 09 27    03 56 05.9 -25 50 49   0.08088 1.0451   120.0    56.2    21.2
...
2016 10 03    03 54 47.5 -25 11 28   0.1101  1.0658   123.8    51.3    21.7
...
2016 10 11    03 50 05.8 -24 18 01   0.1494  1.0988   129.2    44.8    22.3
...
2016 10 26    03 36 50.8 -21 52 12   0.2266  1.1736   138.6    34.1    23.0

A. U. Tomatic                (C) Copyright 2016 MPC           M.P.E.C. 2016-S50




More information about the Iaude mailing list